"Pseudo-MPEC" for P125udr

Created 2025 Jan 14 3:31:05 UT using Find_Orb

Click here for an explanation of pseudo-MPECs

 
 Astrometry: 
     P125udr* C2025 01 06.43295709 08 29.054+07 56 11.55   ~1942 21.56wXNEOCPF51
     P125udr  C2025 01 06.44388909 08 31.481+07 56 36.66   ~1942 21.60wXNEOCPF51
     P125udr  C2025 01 06.45483209 08 33.929+07 57 02.11   ~1942 21.87wXNEOCPF51

Station data:
(F51) Pan-STARRS 1, Haleakala  (N20.707234 W156.255910)  US/Hawaii.
   Observers J. Bulger, T. Lowe, A. Schultz, M. Willman. Measurers K.
   Chambers, S. Chastel, T. de Boer, L. Denneau, J. Fairlamb, H. Flewelling,
   M. Huber, C.-C. Lin, E. Magnier, Y. Ramanjooloo, R. Wainscoat, R. Weryk.
   1.8-m Ritchey-Chrétien + CCD.

Orbital elements:  P125udr
   Perihelion 2025 Jan 22.73551 +/- 30.3 TT = 17:39:08 (JD 2460698.23551)
Epoch 2025 Jan  6.0 TT = JDT 2460681.5   Earth MOID: 0.1179      AutoNEOCP
M 351.94762689 +/- 27               (J2000 ecliptic)
n   0.48115489 +/- 0.396            Peri.    8.07115 +/- 60
a   1.61291981 +/- 0.885            Node   117.62828 +/- 23
e   0.3173277 +/- 0.246             Incl.    7.98755 +/- 8
P   2.048/748.186d         H 24.23  G  0.15   U 12.1  SR
q 1.10109560 +/- 0.369    Q 2.12474403 +/- 34.4
From 3 observations 2025 Jan. 6 (31.5 min); mean residual 0".09
Residuals in arcseconds: 
250106 F51  .07+  .06+    250106 F51  .13-  .11-    250106 F51  .07+  .06+    

Ephemerides (geocentric):
Date (UTC) HH   RA             Dec           delta  r     elong  mag " sig PA
---- --------  ------------   ------------  ------ ------ -----  --- --------
2025 01 14 04  09 41 23.754   +13 30 24.87  .13565 1.1039 150.8 21.3  68d  84
2025 01 14 05  09 41 34.816   +13 32 23.48  .13560 1.1039 150.8 21.3  68d  84
2025 01 14 06  09 41 45.881   +13 34 22.17  .13555 1.1039 150.8 21.3  68d  84
2025 01 14 07  09 41 56.949   +13 36 20.95  .13551 1.1038 150.8 21.3  68d  84
2025 01 14 08  09 42 08.021   +13 38 19.82  .13546 1.1038 150.8 21.3  68d  84
2025 01 14 09  09 42 19.095   +13 40 18.78  .13542 1.1038 150.8 21.3  68d  84
2025 01 14 10  09 42 30.173   +13 42 17.82  .13537 1.1038 150.8 21.3  68d  84
2025 01 14 11  09 42 41.254   +13 44 16.94  .13533 1.1037 150.8 21.3  68d  84
2025 01 14 12  09 42 52.338   +13 46 16.15  .13528 1.1037 150.9 21.3  68d  84
2025 01 14 13  09 43 03.425   +13 48 15.45  .13524 1.1037 150.9 21.3  68d  83
2025 01 14 14  09 43 14.515   +13 50 14.82  .13520 1.1037 150.9 21.3  68d  83
2025 01 14 15  09 43 25.608   +13 52 14.28  .13515 1.1036 150.9 21.3  68d  83
2025 01 14 16  09 43 36.704   +13 54 13.83  .13511 1.1036 150.9 21.3  68d  83
2025 01 14 17  09 43 47.803   +13 56 13.45  .13506 1.1036 150.9 21.3  68d  83
2025 01 14 18  09 43 58.904   +13 58 13.16  .13502 1.1036 150.9 21.3  68d  83
2025 01 14 19  09 44 10.009   +14 00 12.95  .13498 1.1035 150.9 21.3  68d  83
2025 01 14 20  09 44 21.117   +14 02 12.81  .13494 1.1035 150.9 21.3  68d  83
2025 01 14 21  09 44 32.227   +14 04 12.76  .13489 1.1035 151.0 21.3  68d  83
2025 01 14 22  09 44 43.340   +14 06 12.79  .13485 1.1035 151.0 21.3  68d  83
2025 01 14 23  09 44 54.456   +14 08 12.90  .13481 1.1034 151.0 21.3  68d  83
2025 01 15 00  09 45 05.575   +14 10 13.08  .13477 1.1034 151.0 21.3  68d  83
2025 01 15 01  09 45 16.696   +14 12 13.35  .13472 1.1034 151.0 21.3  68d  83
2025 01 15 02  09 45 27.820   +14 14 13.69  .13468 1.1034 151.0 21.3  68d  83
2025 01 15 03  09 45 38.947   +14 16 14.11  .13464 1.1033 151.0 21.3  68d  83
2025 01 15 04  09 45 50.077   +14 18 14.60  .13460 1.1033 151.0 21.3  68d  83
2025 01 15 05  09 46 01.209   +14 20 15.17  .13456 1.1033 151.0 21.3  68d  83
2025 01 15 06  09 46 12.344   +14 22 15.82  .13452 1.1033 151.0 21.3  68d  83
2025 01 15 07  09 46 23.481   +14 24 16.54  .13448 1.1032 151.1 21.3  68d  83
2025 01 15 08  09 46 34.621   +14 26 17.33  .13444 1.1032 151.1 21.3  68d  83
2025 01 15 09  09 46 45.764   +14 28 18.20  .13440 1.1032 151.1 21.3  68d  83
2025 01 15 10  09 46 56.909   +14 30 19.14  .13436 1.1032 151.1 21.3  68d  83
2025 01 15 11  09 47 08.056   +14 32 20.16  .13432 1.1031 151.1 21.3  68d  83
2025 01 15 12  09 47 19.206   +14 34 21.24  .13428 1.1031 151.1 21.3  68d  83
2025 01 15 13  09 47 30.359   +14 36 22.40  .13424 1.1031 151.1 21.2  68d  83
2025 01 15 14  09 47 41.514   +14 38 23.63  .13420 1.1031 151.1 21.2  68d  83
2025 01 15 15  09 47 52.671   +14 40 24.93  .13416 1.1030 151.1 21.2  68d  83
2025 01 15 16  09 48 03.830   +14 42 26.30  .13412 1.1030 151.1 21.2  68d  83
2025 01 15 17  09 48 14.992   +14 44 27.74  .13409 1.1030 151.1 21.2  68d  83
2025 01 15 18  09 48 26.157   +14 46 29.25  .13405 1.1030 151.2 21.2  68d  83
2025 01 15 19  09 48 37.323   +14 48 30.83  .13401 1.1030 151.2 21.2  68d  83
2025 01 15 20  09 48 48.492   +14 50 32.47  .13397 1.1029 151.2 21.2  68d  83
2025 01 15 21  09 48 59.663   +14 52 34.19  .13393 1.1029 151.2 21.2  68d  83
2025 01 15 22  09 49 10.836   +14 54 35.97  .13390 1.1029 151.2 21.2  68d  83
2025 01 15 23  09 49 22.011   +14 56 37.81  .13386 1.1029 151.2 21.2  68d  83
2025 01 16 00  09 49 33.189   +14 58 39.73  .13382 1.1028 151.2 21.2  68d  83
2025 01 16 01  09 49 44.369   +15 00 41.70  .13379 1.1028 151.2 21.2  68d  83
2025 01 16 02  09 49 55.550   +15 02 43.75  .13375 1.1028 151.2 21.2  68d  83
2025 01 16 03  09 50 06.734   +15 04 45.85  .13371 1.1028 151.2 21.2  68d  83